[[{"header":{"parameterUnit":"m.s-1","parameterCategory":1,"la1":30.2992,"la2":30.254,"lo1":-89.0895,"lo2":-89.0443,"dy":0.0025,"dx":0.0025,"nx":19,"ny":19,"refTime":"2026-04-05T03:00:00:Z","depth":0,"parameterNumber":2,"parameterNumberName":"U-component_of_WINDS"},"data":[0,0,0,0.2832,0.2836,0.3021,0.3022,0.324,0.3242,0,0,0,0,0,0,0,0,0,0,0,0.2765,0.2766,0.2832,0.2836,0.3021,0.3022,0.324,0.3242,0,0,0,0,0,0,0,0,0,0,0,0.2765,0.2766,0.2767,0.2837,0.3021,0.3022,0.3239,0.3107,0,0,0,0,0,0,0,0,0,0,0.2931,0.2856,0.2766,0.2767,0.2838,0.302,0.3022,0.3101,0.3115,0.3148,0,0.3173,0,0.3211,0.3255,0.3256,0,0,0,0.2846,0.2844,0.2905,0.2768,0.2839,0.302,0.294,0.3109,0.3125,0.3167,0.3177,0.3185,0.3215,0.3256,0.3257,0.3416,0.3417,0,0,0.2836,0.2792,0.2894,0.2915,0.2883,0.2934,0.2946,0.3119,0.3127,0.3178,0.3191,0.3218,0.3258,0.3259,0.3416,0.3416,0,0,0,0.28,0.2784,0.2842,0.2905,0.294,0.2939,0.2953,0.3119,0.3141,0.3193,0.3221,0.3259,0.3261,0.3416,0.3416,0.3388,0,0,0,0.2794,0.2764,0.2837,0.2812,0.2936,0.3031,0.2948,0.3129,0.315,0.322,0.3259,0.3263,0.3416,0.3416,0.3389,0.3383,0,0,0,0.2757,0.276,0.2782,0.2809,0.2887,0.303,0.3062,0.3135,0.3167,0.3256,0.3264,0.3415,0.3416,0.3389,0.3383,0.3412,0,0,0,0.2706,0.2754,0.2781,0.2846,0.2885,0.301,0.3062,0.3158,0.3231,0.326,0.3416,0.3416,0.3389,0.3383,0.3412,0.3429,0.3432,0,0,0.2743,0.2757,0.2799,0.2828,0.2938,0.2986,0.3093,0.3201,0.325,0.3359,0.3363,0.3389,0.3383,0.3412,0.3463,0.3465,0,0,0,0.2796,0.2825,0.2864,0.2931,0.3015,0.3088,0.3185,0.3226,0.332,0.3296,0.3408,0.3406,0.3425,0.3436,0.3437,0.3457,0.3419,0.3419,0.3419,0.2784,0.2845,0.2919,0.3001,0.3066,0.3167,0.3226,0.3299,0.334,0.3365,0.3398,0.3421,0.3431,0.3433,0.3453,0.3412,0.3412,0.3411,0.3411,0.2844,0.2896,0.2951,0.3042,0.3106,0.3184,0.3284,0.3311,0.3394,0.3401,0.3421,0.3423,0.3433,0.3454,0.341,0.341,0.341,0.3411,0.3411,0.2843,0.2879,0.2928,0.3033,0.3108,0.3191,0.3269,0.3325,0.3378,0.3397,0.3439,0.3439,0.3448,0.3413,0.3413,0.3413,0.3413,0.3414,0.3414,0.2823,0.2879,0.2937,0.3032,0.3084,0.316,0.3263,0.3316,0.339,0.3425,0.3425,0.3465,0.3422,0.3411,0.3415,0.3415,0.3415,0.3414,0.3414,0.2861,0.2862,0.2951,0.3003,0.3121,0.3193,0.3263,0.3368,0.342,0.3457,0.3494,0.3453,0.3472,0.3471,0.3462,0.3479,0.3479,0.3479,0.3479,0.286,0.2876,0.2981,0.3061,0.3146,0.322,0.3321,0.3403,0.3488,0.3525,0.3531,0.3523,0.352,0.3541,0.3539,0.3531,0.3566,0.3566,0.3566,0.2888,0.2914,0.2989,0.3071,0.3168,0.3251,0.3348,0.344,0.3537,0.3571,0.3555,0.3552,0.3541,0.3534,0.3566,0.3561,0.3548,0,0]},{"header":{"parameterUnit":"m.s-1","parameterCategory":1,"la1":30.2992,"la2":30.254,"lo1":-89.0895,"lo2":-89.0443,"dy":0.0025,"dx":0.0025,"nx":19,"ny":19,"refTime":"2026-04-05T03:00:00:Z","depth":0,"parameterNumber":3,"parameterNumberName":"V-component_of_WINDS"},"data":[0,0,0,3.5771,3.5773,3.589,3.589,3.6032,3.6034,0,0,0,0,0,0,0,0,0,0,0,3.5736,3.5737,3.5771,3.5774,3.589,3.589,3.6032,3.6034,0,0,0,0,0,0,0,0,0,0,0,3.5736,3.5737,3.5738,3.5774,3.589,3.589,3.6032,3.5945,0,0,0,0,0,0,0,0,0,0,3.5833,3.5802,3.5737,3.5738,3.5775,3.589,3.5891,3.5941,3.5951,3.5978,0,3.6006,0,3.6023,3.6043,3.6044,0,0,0,3.5772,3.5794,3.5826,3.5739,3.5776,3.589,3.5837,3.5947,3.5957,3.5991,3.6008,3.6013,3.6025,3.6044,3.6045,3.6219,3.622,0,0,3.5766,3.5756,3.5819,3.5833,3.582,3.5833,3.5841,3.5953,3.597,3.6009,3.6017,3.6027,3.6045,3.6046,3.6218,3.6219,0,0,0,3.5748,3.5751,3.5781,3.5828,3.5849,3.5837,3.5845,3.5964,3.5975,3.6018,3.6029,3.6046,3.6048,3.6217,3.6219,3.6255,0,0,0,3.5744,3.5741,3.5778,3.5773,3.5847,3.5909,3.5854,3.5968,3.5981,3.6028,3.6046,3.6049,3.6216,3.6218,3.6252,3.6273,0,0,0,3.5728,3.5739,3.5757,3.5772,3.5823,3.5908,3.5925,3.5971,3.5987,3.6044,3.6049,3.6216,3.6218,3.6249,3.6268,3.6318,0,0,0,3.5707,3.5783,3.5757,3.5846,3.5822,3.5931,3.5924,3.6005,3.6058,3.6047,3.6217,3.6219,3.6249,3.6266,3.6315,3.6358,3.6375,0,0,3.5797,3.5793,3.5847,3.5827,3.594,3.5914,3.603,3.6085,3.6096,3.6176,3.6181,3.6253,3.6268,3.6317,3.6474,3.6488,0,0,0,3.5871,3.591,3.5942,3.5995,3.6043,3.6085,3.6125,3.6145,3.6215,3.6137,3.6284,3.6293,3.6322,3.6343,3.6355,3.6381,3.6228,3.6228,3.6227,3.5981,3.5998,3.6088,3.612,3.6171,3.6214,3.6256,3.6291,3.6287,3.6322,3.6346,3.644,3.6464,3.6473,3.6499,3.637,3.637,3.637,3.637,3.6114,3.6172,3.6173,3.6261,3.6277,3.6348,3.6393,3.6389,3.6457,3.6422,3.6448,3.6409,3.6487,3.6511,3.6373,3.6372,3.6372,3.6372,3.6371,3.6188,3.6219,3.6247,3.6329,3.6389,3.6417,3.6485,3.6495,3.6504,3.6531,3.6558,3.6557,3.6558,3.6543,3.6544,3.6544,3.6544,3.6545,3.6545,3.6253,3.6284,3.6342,3.6404,3.6442,3.6492,3.6539,3.6574,3.6616,3.6618,3.6618,3.6612,3.6493,3.6463,3.655,3.6549,3.6548,3.6548,3.6547,3.638,3.6355,3.6445,3.6484,3.6558,3.6618,3.6633,3.6706,3.6737,3.677,3.676,3.667,3.6665,3.6656,3.6631,3.6756,3.6756,3.6756,3.6756,3.6443,3.6444,3.6541,3.6602,3.6663,3.6687,3.6786,3.6824,3.6857,3.6877,3.6861,3.6829,3.6819,3.682,3.6807,3.6784,3.6945,3.6946,3.6946,3.6523,3.6531,3.6615,3.6654,3.6714,3.6765,3.6859,3.6926,3.6958,3.6954,3.6893,3.6885,3.6833,3.6816,3.6808,3.6788,3.6746,0,0]}]]